User: anonymous   Login
Location: Iesi
(43.5167°N, 13.2333°E)
Time: 03:53:03
(UTC+00:00)
Language:

Cosmos 405 Rocket - Orbit

View from above orbital plane
View from above orbital plane
View from above satellite
View from above satellite

Ground track
Ground track

The orbit data is extracted from the following two-line orbital elements,

1  5118U 71028B   20304.23848819 +.00000209 +00000-0 +94792-5 0  9992
2  5118 081.2564 181.5218 0047857 111.2329 249.4021 15.14699463690228
Epoch (UTC): 30 October 2020 05:43:25
Eccentricity: 0.0047857
inclination: 81.2564°
perigee height: 489 km
apogee height: 555 km
right ascension of ascending node: 181.5218°
argument of perigee: 111.2329°
revolutions per day: 15.14699463
mean anomaly at epoch: 249.4021°
orbit number at epoch: 69022

The dashed part of the orbit path shows where the satellite is in the earth's shadow,  

DLR